Home > Weather > Sopron > Past weeks

Flag for Hungary Past Weather in Sopron, Hungary — Yesterday and Last 2 Weeks

Now
86 °F

Warm.


Feels Like: 86 °F
Forecast: 69 / 87 °F
Wind: 6 mph from Southeast

Location: Eisenstadt

Current Time: Jul 30, 2016 at 5:02:55 PM

Latest Report: Jul 30, 2016 at 4:00 PM


Visibility: N/A

Pressure: 29.89 "Hg

Humidity: 44%

Dew Point: 62 °F

Location of SopronLocation

Past Weather in Sopron — Graph

°F

Sopron Temperature Yesterday

Maximum temperature yesterday: 83 °F (at 2:00 PM)
Minimum temperature yesterday: 68 °F (at 6:00 AM)
Average temperature yesterday: 75 °F

High & Low Weather Summary for the Past Weeks

 TemperatureHumidityPressure
High88 °F (Jul 30, 3:00 PM)95% (Jul 23, 2:00 AM)30.19 "Hg (Jul 23, 2:00 AM)
Low57 °F (Jul 17, 5:00 AM)37% (Jul 30, 3:00 PM)29.89 "Hg (Jul 27, 6:00 PM)
Average73 °F67%30.01 "Hg
* Reported Jul 15 4:00 PM — Jul 30 4:00 PM, Sopron, Weather by CustomWeather, © 2016

Note: Actual official high and low records may vary slightly from our data, if they occured in-between our weather recording intervals... More about our weather records

Advertising

Sopron Weather History for the Previous 24 Hours

Scroll right to see more
 ConditionsComfort  
Time TempWeatherWind HumidityBarometerVisibility
4:00 PM
Sat, Jul 30
86 °FWarm.6 mph44%29.89 "HgN/A
3:00 PM88 °FPleasantly warm.2 mph37%29.89 "HgN/A
2:00 PM87 °FPleasantly warm.2 mph38%29.91 "HgN/A
1:00 PM86 °FPleasantly warm.2 mph40%29.92 "HgN/A
12:00 PM84 °FWarm.2 mph46%29.93 "HgN/A
11:00 AM83 °FSunny.1 mph49%29.94 "Hg16 mi
10:00 AM80 °FWarm.1 mph50%29.96 "HgN/A
9:00 AM76 °FMild.1 mph64%29.96 "HgN/A
8:00 AM71 °FSunny.1 mph73%29.96 "Hg16 mi
7:00 AM66 °FSunny.2 mph79%29.97 "Hg12 mi
6:00 AM64 °FSunny.3 mph83%29.97 "Hg12 mi
5:00 AM63 °FClear.1 mph85%29.96 "Hg9 mi
4:00 AM65 °FMild.2 mph86%29.96 "HgN/A
3:00 AM66 °FMild.2 mph84%29.97 "HgN/A
2:00 AM67 °FClear.2 mph81%29.97 "Hg6 mi
1:00 AM67 °FMild.2 mph80%29.97 "HgN/A
12:00 AM68 °FMild.2 mph78%29.96 "HgN/A
11:00 PM
Fri, Jul 29
70 °FClear.2 mph75%29.95 "Hg12 mi
10:00 PM70 °FMild.3 mph74%29.95 "HgN/A
9:00 PM72 °FMild.1 mph67%29.93 "HgN/A
8:00 PM77 °FPassing clouds.1 mph58%29.91 "Hg16 mi
7:00 PM82 °FPassing clouds.2 mph50%29.90 "Hg16 mi
6:00 PM83 °FWarm.1 mph51%29.90 "HgN/A
5:00 PM80 °FPartly sunny.2 mph57%29.90 "Hg14 mi
Weather by CustomWeather, © 2016

See weather overviewHow to use our weather pages